Flag for Germany Weather past 2 weeks in Schorndorf, Baden-Württemberg, Germany

Now
51 °F

Passing clouds.


Feels Like: 49 °F
Forecast: 36 / 61 °F
Wind: 6 mph from West

Location: Stuttgart-Echterdingen

Current Time: Sep 22, 2014 at 4:15:06 AM

Latest Report: Sep 22, 2014 at 3:00 AM


Visibility: 7 mi

Pressure: 30.12 "Hg

Humidity: 92%

Dew point: 49 °F

Location of SchorndorfLocation

Historic Weather in Schorndorf — Graph

°F

Schorndorf temperature yesterday

Maximum temperature yesterday: 67 °F (at 3:00 PM)
Minimum temperature yesterday: 56 °F (at 9:00 PM)
Average temperature yesterday: 61 °F

Past Weeks' High & Low Weather Summary

 TemperatureHumidityPressure
High76 °F (Sep 19, 2:00 PM)99% (Sep 7, 7:00 AM)30.16 "Hg (Sep 7, 7:00 AM)
Low51 °F (Sep 17, 6:00 AM)51% (Sep 9, 4:00 PM)29.83 "Hg (Sep 17, 5:00 PM)
Average61 °F83%30.00 "Hg
* Reported Sep 7 3:00 AM — Sep 22 3:00 AM, Schorndorf, Weather by CustomWeather, © 2014

Note: Actual official high and low records may vary slightly from our data, if they occured in-between our weather recording intervals... More about our weather records

Advertising

Schorndorf weather history for previous 24 hours

 ConditionsComfort  
Time TempWeatherWind HumidityBarometerVisibility
3:00 AM
Sep 22
51 °FPassing clouds.6 mph92%30.12 "Hg7 mi
2:00 AM53 °FPassing clouds.5 mph90%30.11 "Hg7 mi
1:00 AM54 °FLow clouds.6 mph91%30.10 "Hg7 mi
12:00 AM56 °FLight rain. Low clouds.6 mph91%30.08 "Hg9 mi
10:00 PM
Sep 21
56 °FLight rain. Low clouds.2 mph94%30.06 "Hg9 mi
9:00 PM56 °FRain. Low clouds.5 mph92%30.05 "Hg6 mi
8:00 PM56 °FRain. Low clouds.7 mph90%30.01 "Hg4 mi
7:00 PM58 °FRain. Low clouds.5 mph93%29.97 "Hg4 mi
6:00 PM62 °FSprinkles. Overcast.6 mph86%29.95 "Hg14 mi
5:00 PM65 °FOvercast.2 mph75%29.93 "Hg40 mi
4:00 PM66 °FOvercast.5 mph69%29.93 "Hg43 mi
3:00 PM67 °FOvercast.6 mph69%29.94 "Hg40 mi
2:00 PM66 °FOvercast.6 mph68%29.96 "Hg28 mi
1:00 PM66 °FPartly sunny.7 mph69%29.97 "Hg19 mi
12:00 PM64 °FOvercast.3 mph83%29.97 "Hg19 mi
10:00 AM61 °FOvercast.2 mph91%29.98 "Hg16 mi
9:00 AM60 °FRain showers. Low clouds.5 mph93%29.98 "Hg6 mi
8:00 AM60 °FSprinkles. Overcast.1 mph94%29.98 "Hg12 mi
7:00 AM60 °FSprinkles. Low clouds.1 mph93%29.98 "Hg9 mi
6:00 AM59 °FLow clouds.1 mph94%29.98 "Hg10 mi
4:00 AM60 °FRain. Low clouds.2 mph95%29.99 "Hg6 mi
Weather by CustomWeather, © 2014

See weather overviewHow to use our weather pages